AEROCUBE 4.5A

Last updated on Thu Jul 03 2025 00:03:45 GMT+0000 (Coordinated Universal Time)

1 38767U 12048K 25183.21669633 .00016986 00000+0 44056-3 0 9992 2 38767 64.6463 149.8780 0098286 269.8989 89.0881 15.34283809318293
UTC large
Height (km)
Speed (km/s)
/
Latitude / Longitude
Inclination (degrees)
Orbital Period (minutes)
Azimuth
Elevation
Range (km)
Doppler Factor

Next 0 passes for location: London (51.5072 / 0.1276)

Sorry there are no passes over London.